Regional Weather Roundup
Issued by NWS Newport/Morehead, NC

Current Version | Previous Version | Graphics & Text | Print | Product List | Glossary Off
Versions: 1 2 3 4 5 6 7 8 9 10 11 12 13 14 15 16 17 18 19 20 21 22 23 24 25 26 27 28 29 30 31 32 33 34 35 36 37 38 39 40 41 42 43 44 45 46 47 48 49 50

000
ASUS42 KMHX 281714
RWRMHX
WEATHER ROUNDUP FOR EASTERN NORTH CAROLINA
NATIONAL WEATHER SERVICE NEWPORT/MOREHEAD CITY NC
100 PM EDT SUN MAY 28 2017

NOTE: "FAIR" INDICATES FEW OR NO CLOUDS BELOW 12,000 FEET
WITH NO SIGNIFICANT WEATHER AND/OR OBSTRUCTIONS TO VISIBILITY

NCZ015>017-031-032-045>047-102-103-281800-
NORTH COAST

CITY           SKY/WX    TMP DP  RH WIND       PRES   REMARKS
EDENTON        CLOUDY    85  74  70 S12       29.83F
ELIZABETH CITY PTSUNNY   80  72  76 SE7       29.84F
KITTY HAWK     CLOUDY    80  69  68 CALM      29.84F
MANTEO         CLOUDY    79  72  79 S10       29.86F

$$

NCZ045>047-081-094-103-104-281800-
CENTRAL COAST

CITY           SKY/WX    TMP DP  RH WIND       PRES   REMARKS
FRISCO         SUNNY     81  73  76 SW8       29.89S

$$

NCZ095-097-098-100-101-281800-
SOUTHERN COAST

CITY           SKY/WX    TMP DP  RH WIND       PRES   REMARKS
BEAUFORT       SUNNY     82  74  76 SW16G22   29.87F
CEDAR ISLAND   NOT AVBL
JACKSONVILLE   NOT AVBL
PINEY ISLAND   SUNNY    N/A N/A N/A S16G24    29.85F
WILMINGTON     SUNNY     89  69  51 SW12      29.85F


$$

NCZ011>013-027>030-043-044-078>080-089-090>093-098-281800-
COASTAL PLAIN

CITY           SKY/WX    TMP DP  RH WIND       PRES   REMARKS
AHOSKIE        NOT AVBL
CLINTON        SUNNY     87  68  52 S6        29.85S
ELIZABETHTOWN  SUNNY     88  65  45 SW9       29.85F
GOLDSBORO      MOSUNNY   88  67  49 SW14G26   29.81F
GREENVILLE     PTSUNNY   88  70  55 SW16      29.84F
HAVELOCK       MOSUNNY   90  69  50 SW16G24   29.86F
KENANSVILLE    SUNNY     88  66  48 SW9G18    29.83F
KINSTON        SUNNY     90  64  43 SW3       29.82F
NEW BERN       MOSUNNY   89  70  53 SW10G21   29.84F
RICHLANDS      NOT AVBL
ROCKY MOUNT    MOSUNNY   85  71  63 SW9       29.81F
WASHINGTON     CLOUDY    87  71  59 S9        29.81F
WHITEVILLE     SUNNY     87  67  51 W5        29.85F

$$

AMZ130-135-150-152-154-156-158-170-250-252-270-ANZ085-086-088-633-658-670-281800-
MARINE OBSERVATIONS

STATION/POSITION TIME  TEMP    WIND        PRES    WAVE   SWELL
                       AIR SEA DIR/SP/G            HT/PER HT/PER
                 (UTC) (F)     (DEG/KT/KT) (MB)    (FT/S) (FT/S)
CHESAPEAKE LIGHT NOT AVBL
64 E VA BEACH    1650   68 66  160/  4/  4 1012.0    3/ 7   2/ 7
DUCK             1648   71 67  140/  8/ 11 1010.5
2 E DUCK         1630      69                N/A     2/ 7
OREGON INLET     1642   78 72  120/  6/ 10 1011.0
13E OREGON INLT  1648      68                N/A     3/ 7   2/ 7
HATTERAS CG      1648   78 74  200/  9/ 13 1011.7
DIAMOND BUOY     1650   77 77  230/ 12/ 14 1012.2    3/ 6   2/ 6
CAPE LOOKOUT     1700   80     210/ 11/ 15 1011.3
BEAUFORT LAB     1648   79 73  210/ 11/ 14 1010.7
30 SE NEW RVR IN 1608   77 77  240/ 16/ 19 1013.0
30 SE NEW RVR IN 1643      77                N/A     4/ 6
27 SE WRIGHTSVLE 1608   76 77  220/ 14/ 19 1012.2
5 SE WRIGHTSVLE  1608   77 75  200/ 10/ 16 1012.3
225 S CAPE HAT   1650   77 77  250/ 14/ 17 1016.6    4/ 5   2/ 7
41 SE CHARLESTON 1650   77 76  210/ 14/ 16 1013.6    3/ 5   2/ 8

$$




USA.gov is the U.S. government's official web portal to all federal, state and local government web resources and services.